Messina, Italy

3:45 PM CEST on September 22, 2017 (GMT +0200)
Messina

Weather History for LICF - January, 2013

Change the Weather History Date:

Tuesday, January 1, 2013

  Actual Average (LICR) Record (LICR)
Temperature  
Mean Temperature 56 °F -  
Max Temperature 61 °F 58 °F 66 °F (1997)
Min Temperature 50 °F 50 °F 42 °F (2000)
Degree Days  
Heating Degree Days 9    
Growing Degree Days 6 (Base 50)    
Moisture  
Dew Point 44 °F    
Average Humidity 66    
Maximum Humidity 82    
Minimum Humidity 42    
Precipitation  
Precipitation 0.00 in 0.15 in - ()
Sea Level Pressure  
Sea Level Pressure 30.12 in    
Wind  
Wind Speed 2 mph ()    
Max Wind Speed 8 mph    
Max Gust Speed -    
Visibility 6.6 miles    
Events      
Averages and records for this station are not official NWS values.
T = Trace of Precipitation, MM = Missing Value Source: Averaged Metar Reports

Daily Weather History Graph

Daily Weather History Graph

Search for Another Location

Airport or City:

Trip Planner

Search our weather history database for the weather conditions in past years. The results will help you decide how hot, cold, wet, or windy it might be!

Date:

Astronomy

Jan. 01, 2013 Rise Set
Actual Time 7:14 AM CET 4:48 PM CET
Civil Twilight 6:44 AM CET 5:18 PM CET
Nautical Twilight 6:11 AM CET 5:51 PM CET
Astronomical Twilight 5:39 AM CET 6:23 PM CET
Moon 8:57 PM CET (1/1) 9:21 AM CET (1/1)
Length of Visible Light 10h 33m
Length of Day
9h 34m
Waning Gibbous, 85% of the Moon is Illuminated
Jan 1
Waning Gibbous
Jan 5
Last Quarter
Jan 11
New
Jan 19
First Quarter
Jan 27
Full

Hourly Weather History & Observations

Time (CET) Temp. Dew Point Humidity Pressure Visibility Wind Dir Wind Speed Gust Speed Precip Events Conditions
12:55 AM 55.4 °F 48.2 °F 77% 30.15 in 6.2 mi Calm Calm - N/A   Scattered Clouds
1:00 AM 55 °F 48 °F 70% 30.16 in 6 mi Calm Calm - -   Partly Cloudy
1:55 AM 55.4 °F 48.2 °F 77% 30.12 in 6.2 mi Calm Calm - N/A   Scattered Clouds
2:55 AM 53.6 °F 46.4 °F 77% 30.12 in 6.2 mi NW 5.8 mph - N/A   Scattered Clouds
3:55 AM 53.6 °F 46.4 °F 77% 30.12 in 6.2 mi West 1.2 mph - N/A   Partly Cloudy
4:55 AM 53.6 °F 44.6 °F 72% 30.12 in 6.2 mi NNW 5.8 mph - N/A   Partly Cloudy
5:55 AM 53.6 °F 44.6 °F 72% 30.12 in - NW 6.9 mph - N/A   Clear
6:55 AM 53.6 °F 42.8 °F 67% 30.12 in 6.2 mi NNW 3.5 mph - N/A   Partly Cloudy
7:00 AM 53 °F 43 °F 58% 30.14 in 12 mi NNW 3.5 mph - -   Scattered Clouds
7:55 AM 51.8 °F 42.8 °F 71% 30.12 in 6.2 mi Calm Calm - N/A   Partly Cloudy
8:55 AM 51.8 °F 42.8 °F 71% 30.12 in 6.2 mi Calm Calm - N/A   Partly Cloudy
9:55 AM 55.4 °F 44.6 °F 67% 30.12 in 6.2 mi Calm Calm - N/A   Partly Cloudy
10:55 AM 57.2 °F 44.6 °F 63% 30.12 in 6.2 mi East 2.3 mph - N/A   Partly Cloudy
11:55 AM 59.0 °F 42.8 °F 55% 30.12 in 6.2 mi ENE 8.1 mph - N/A   Partly Cloudy
12:55 PM 59.0 °F 42.8 °F 55% 30.09 in 6.2 mi ENE 8.1 mph - N/A   Partly Cloudy
1:00 PM 59 °F 43 °F 44% 30.12 in 12 mi ENE 8.1 mph - -   Scattered Clouds
1:55 PM 60.8 °F 37.4 °F 42% 30.09 in 6.2 mi NNW 3.5 mph - N/A   Partly Cloudy
2:55 PM 59.0 °F 35.6 °F 42% 30.09 in 6.2 mi North 2.3 mph - N/A   Partly Cloudy
3:55 PM 59.0 °F 41.0 °F 51% 30.09 in 6.2 mi NE 2.3 mph - N/A   Partly Cloudy
4:55 PM 57.2 °F 42.8 °F 59% 30.09 in 6.2 mi NNW 1.2 mph - N/A   Partly Cloudy
5:55 PM 55.4 °F 44.6 °F 67% 30.09 in 6.2 mi Calm Calm - N/A   Partly Cloudy
6:55 PM 53.6 °F 44.6 °F 72% 30.09 in 6.2 mi Calm Calm - N/A   Partly Cloudy
7:00 PM 54 °F 44 °F 60% 30.13 in 6 mi Calm Calm - -   Scattered Clouds
7:55 PM 51.8 °F 44.6 °F 76% 30.12 in 6.2 mi NNW 1.2 mph - N/A   Scattered Clouds
8:55 PM 53.6 °F 44.6 °F 72% 30.12 in 6.2 mi Calm Calm - N/A   Partly Cloudy
9:55 PM 51.8 °F 44.6 °F 76% 30.12 in 6.2 mi Calm Calm - N/A   Scattered Clouds
10:55 PM 51.8 °F 44.6 °F 76% 30.12 in 6.2 mi Calm Calm - N/A   Partly Cloudy
11:55 PM 50.0 °F 44.6 °F 82% 30.12 in 6.2 mi Calm Calm - N/A   Partly Cloudy